Вернуться в каталог

STARLINK-37284

АктивенСвязьSSO
NORAD 68623·PAYLOAD·🇺🇸 United States

Запущен Apr 5, 2026 с Vandenberg Space Force Base

Loading…

Ближайшие Пролёты (ближайшие 24 часа)

TLE

СвежийSource: CelesTrak SupGP

Эпоха: Sep 15, 2026, 03:06 UTC

1 68623C 26073X   26258.12965278 -.00043410  00000+0 -13473-2 0  2587
2 68623  97.2849  96.1812 0001835  91.5595 309.8202 15.33465056    17

Отслеживайте STARLINK-37284 в реальном времени с AllMySat

Download on the App Store